Flag for Tuvalu Weather past 2 weeks in Funafuti, Tuvalu

Now
79 °F

Sprinkles. Mostly cloudy.


Feels Like: 82 °F
Forecast: 82 / 87 °F
Wind: 7 mph from Southeast

Location: Funafuti

Current Time: Jul 28, 2014 at 8:54:46 PM

Latest Report: Jul 28, 2014 at 8:00 PM


Visibility: N/A

Pressure: 29.89 "Hg

Humidity: 89%

Dew point: 75 °F

Location of FunafutiLocation

Historic Weather in Funafuti — Graph

°F

Funafuti temperature yesterday

Maximum temperature yesterday: 81 °F (at 12:00 AM)
Minimum temperature yesterday: 75 °F (at 4:00 PM)
Average temperature yesterday: 78 °F

Past Weeks' High & Low Weather Summary

 TemperatureHumidityPressure
High90 °F (Jul 15, 1:00 PM)100% (Jul 28, 3:00 AM)29.92 "Hg (Jul 28, 3:00 AM)
Low75 °F (Jul 16, 1:00 AM)59% (Jul 14, 12:00 PM)27.26 "Hg (Jul 20, 12:00 AM)
Average83 °F79%29.82 "Hg
* Reported Jul 13 7:00 PM — Jul 28 7:00 PM, Funafuti, Weather by CustomWeather, © 2014

Note: Actual official high and low records may vary slightly from our data, if they occured in-between our weather recording intervals... More about our weather records

Advertising

Funafuti weather history for previous 24 hours

 ConditionsComfort  
Time TempWeatherWind HumidityBarometerVisibility
7:00 PM
Jul 28
79 °FSprinkles. Mostly cloudy.6 mph89%29.86 "HgN/A
6:00 PM81 °FScattered showers. More clouds than sun.7 mph84%29.83 "HgN/A
5:00 PM82 °FScattered showers. More clouds than sun.9 mph84%29.83 "HgN/A
4:00 PM82 °FScattered showers. More clouds than sun.9 mph84%29.80 "HgN/A
3:00 PM79 °FSprinkles. More clouds than sun.7 mph94%29.83 "HgN/A
2:00 PM79 °FRain. Mostly cloudy.10 mph94%29.83 "HgN/A
1:00 PM77 °FSprinkles. More clouds than sun.3 mph89%29.86 "HgN/A
12:00 PM81 °FScattered showers. More clouds than sun.12 mph89%29.89 "HgN/A
11:00 AM79 °FSprinkles. Broken clouds.9 mph89%29.89 "HgN/A
10:00 AM81 °FSprinkles. More clouds than sun.6 mph89%29.89 "HgN/A
9:00 AM81 °FSprinkles. More clouds than sun.6 mph89%29.89 "HgN/A
8:00 AM79 °FSprinkles. Mostly cloudy.13 mph94%29.89 "HgN/A
7:00 AM79 °FSprinkles. Mostly cloudy.9 mph89%29.86 "HgN/A
6:00 AM79 °FSprinkles. Mostly cloudy.9 mph89%29.83 "HgN/A
5:00 AM79 °FScattered showers. Mostly cloudy.6 mph94%29.83 "HgN/A
4:00 AM79 °FSprinkles. Mostly cloudy.7 mph94%29.83 "HgN/A
3:00 AM77 °FSprinkles. Mostly cloudy.10 mph100%29.83 "HgN/A
2:00 AM77 °FScattered showers. Mostly cloudy.12 mph94%29.86 "HgN/A
1:00 AM79 °FSprinkles. Mostly cloudy.10 mph94%29.86 "HgN/A
12:00 AM79 °FSprinkles. Mostly cloudy.12 mph94%29.86 "HgN/A
11:00 PM
Jul 27
77 °FSprinkles. Mostly cloudy.10 mph94%29.86 "HgN/A
10:00 PM77 °FSprinkles. Mostly cloudy.13 mph94%29.86 "HgN/A
9:00 PM77 °FRain showers. Mostly cloudy.8 mph94%29.86 "HgN/A
8:00 PM75 °FRain showers. Mostly cloudy.3 mph94%29.86 "HgN/A
Weather by CustomWeather, © 2014

See weather overviewHow to use our weather pages